sat.trackr.live / text

‹ back to catalog

STARLINK-30544

NORAD 58055 · 2023-158E

PAYLOAD ACTIVE UNKNOWN

§ Identity

Operator
Country
US
Launch date
2023-10-13
Launch site
AFETR
Launch vehicle
Mass (kg)
RCS (m²)

Purposes: comms

External: N2YO · Heavens-Above · Gunter

§ Orbital elements

Epoch: 2026-09-20T08:16:41.939904Z

Period
94.27 min
Inclination
43.0070°
Eccentricity
0.0002058
Mean motion
15.27575060 rev/d
Perigee alt
481.7 km
Apogee alt
484.5 km
Semi-major
6,861.2 km
B*
-3.1245e-6
RAAN
7.4251°
Arg perigee
274.1278°
Mean anomaly
85.9339°
Rev number
16,334

§ Raw data

STARLINK-305441 58055U 23158E   26263.34492986 -.00000348  00000+0 -31245-5 0  99922 58055  43.0070   7.4251 0002058 274.1278  85.9339 15.27575060163346

JSON: /api/v1/satellites/58055 · /tle

For live sub-satellite position, see the globe view (requires WebGL).

§ Visibility from observer

Set your observer location to see the next 7 days of passes ≥ 10°. The values pass through the URL so the page stays shareable.

No JS? Fill the form by hand. The geolocation button needs JavaScript.